[[{"header":{"parameterUnit":"m.s-1","parameterCategory":1,"la1":30.2991,"la2":30.254,"lo1":-89.0895,"lo2":-89.0444,"dy":0.0017,"dx":0.0017,"nx":28,"ny":28,"refTime":"2025-08-16T21:00:00:Z","depth":0,"parameterNumber":2,"parameterNumberName":"U-component_of_WINDS"},"data":[0,0,0,0,0,0,0,0,0,0,0,0,0,0,0,0,0,0,0,0,0,0,0,0,0,0,0,0,0,0,0,0,0,0,0,0,0,0,0,0,0,0,0,0,0,0,0,0,0,0,0,0,0,0,0,0,0,0,-1.8758,-1.8758,0,-1.8735,-1.8734,-1.8734,-1.867,-1.8668,-1.8667,-1.8666,-1.8644,-1.8644,-1.8645,0,0,0,0,0,0,0,0,0,0,0,0,0,-1.8749,-1.8749,-1.8758,-1.8758,-1.8757,-1.8735,-1.8734,-1.8734,-1.867,-1.8668,-1.8667,-1.8665,-1.8643,-1.8644,-1.8645,0,0,0,0,0,0,0,0,0,0,0,0,0,-1.8742,-1.8749,-1.8758,-1.8723,-1.8719,-1.8735,-1.8734,-1.8734,-1.867,-1.8668,-1.8666,-1.8664,-1.8643,-1.8644,-1.8645,-1.8694,0,0,-1.8648,-1.8649,0,0,0,0,0,0,0,0,-1.8742,-1.8742,-1.8728,-1.8725,-1.8721,-1.8703,-1.8723,-1.872,-1.8671,-1.8689,-1.8666,-1.8663,-1.8665,-1.8664,-1.8664,-1.8693,-1.8692,-1.8648,-1.8649,-1.865,-1.865,0,0,0,0,0,0,0,-1.8743,-1.8743,-1.8749,-1.8728,-1.8724,-1.8708,-1.8705,-1.8722,-1.8689,-1.8687,-1.8682,-1.868,-1.8663,-1.8664,-1.8663,-1.8691,-1.8648,-1.8649,-1.865,-1.865,-1.8759,-1.8761,0,0,0,0,0,0,-1.8748,-1.8744,-1.8749,-1.8748,-1.8727,-1.871,-1.8707,-1.8711,-1.8689,-1.8683,-1.8682,-1.8678,-1.8663,-1.8662,-1.8662,-1.8719,-1.865,-1.8651,-1.8651,-1.8757,-1.876,-1.8762,0,0,0,0,0,0,-1.8748,-1.8749,-1.875,-1.8745,-1.8744,-1.8713,-1.8718,-1.8712,-1.8712,-1.8685,-1.8679,-1.8689,-1.8661,-1.8661,-1.8686,-1.8717,-1.8651,-1.8652,-1.8754,-1.8758,-1.8761,-1.8831,0,0,0,0,0,0,-1.8748,-1.875,-1.8767,-1.8745,-1.8744,-1.8775,-1.872,-1.8713,-1.8714,-1.8708,-1.869,-1.8685,-1.8659,-1.8685,-1.8688,-1.8717,-1.8653,-1.8751,-1.8756,-1.876,-1.8826,-1.8837,-1.8846,0,0,0,0,0,-1.8748,-1.8788,-1.8769,-1.877,-1.8766,-1.8776,-1.8776,-1.8745,-1.8717,-1.8735,-1.8717,-1.8685,-1.8713,-1.8688,-1.869,-1.8721,-1.8749,-1.8755,-1.8759,-1.8822,-1.8835,-1.8846,0,0,0,0,0,0,-1.8815,-1.8785,-1.8763,-1.8797,-1.879,-1.8765,-1.8787,-1.876,-1.8761,-1.8755,-1.8717,-1.8714,-1.8745,-1.8735,-1.8708,-1.8767,-1.8726,-1.8732,-1.8773,-1.8785,-1.8794,-1.8797,-1.8654,0,0,0,0,0,-1.8834,-1.8845,-1.8818,-1.885,-1.8848,-1.8818,-1.8822,-1.8799,-1.879,-1.8787,-1.8771,-1.8765,-1.8772,-1.8778,-1.8783,-1.8824,-1.882,-1.8846,-1.8856,-1.8864,-1.887,-1.8892,-1.8904,-1.8779,-1.8779,-1.8778,0,0,-1.8873,-1.8858,-1.8867,-1.8864,-1.8855,-1.8868,-1.8816,-1.8832,-1.8841,-1.879,-1.8813,-1.8801,-1.8791,-1.8826,-1.884,-1.8818,-1.8904,-1.8871,-1.8877,-1.8879,-1.8899,-1.8911,-1.8922,-1.8782,-1.8781,-1.8781,0,0,-1.8951,-1.894,-1.8966,-1.8959,-1.8947,-1.8927,-1.8934,-1.8913,-1.8904,-1.8926,-1.8888,-1.8899,-1.8912,-1.8907,-1.8906,-1.8982,-1.8953,-1.8985,-1.9036,-1.9059,-1.9069,-1.9077,-1.9106,-1.9116,-1.899,-1.899,-1.8991,0,-1.9001,-1.9018,-1.8983,-1.9002,-1.9002,-1.8955,-1.8983,-1.8977,-1.8968,-1.897,-1.8945,-1.8961,-1.8951,-1.8984,-1.9003,-1.9003,-1.901,-1.8987,-1.907,-1.9078,-1.9086,-1.9113,-1.9123,-1.8994,-1.8994,-1.8994,-1.8993,0,-1.9081,-1.9093,-1.9116,-1.9108,-1.9111,-1.9134,-1.9104,-1.911,-1.9087,-1.907,-1.9095,-1.9081,-1.9083,-1.9088,-1.9066,-1.9119,-1.9106,-1.9076,-1.9034,-1.9102,-1.9127,-1.9137,-1.9,-1.8999,-1.8998,-1.8997,0,0,-1.9201,-1.9173,-1.9183,-1.9179,-1.9162,-1.9172,-1.9193,-1.9194,-1.9201,-1.9196,-1.9214,-1.9226,-1.9199,-1.9198,-1.9174,-1.9194,-1.9257,-1.9162,-1.9161,-1.9181,-1.9315,-1.9339,-1.9351,-1.9237,-1.9239,-1.924,-1.9317,0,-1.9275,-1.9309,-1.9279,-1.9319,-1.9331,-1.9287,-1.9305,-1.9298,-1.9282,-1.9291,-1.9273,-1.9283,-1.9246,-1.9245,-1.9262,-1.9246,-1.9283,-1.9239,-1.9254,-1.9255,-1.926,-1.9364,-1.9388,-1.9461,-1.9326,-1.9327,-1.9329,0,-1.9367,-1.9366,-1.9408,-1.9389,-1.9393,-1.941,-1.9409,-1.9417,-1.9408,-1.9396,-1.9395,-1.9366,-1.9386,-1.9344,-1.9372,-1.9343,-1.9347,-1.934,-1.9342,-1.9343,-1.9297,-1.937,-1.9483,-1.9495,-1.9343,-1.9342,-1.9341,0,-1.9452,-1.9462,-1.9488,-1.9485,-1.9464,-1.9477,-1.9469,-1.9458,-1.9461,-1.946,-1.9462,-1.9464,-1.9466,-1.9468,-1.9441,-1.9413,-1.9473,-1.9429,-1.9465,-1.9466,-1.948,-1.948,-1.9598,-1.9481,-1.9481,-1.948,-1.948,0,-1.954,-1.9567,-1.9526,-1.9542,-1.9572,-1.9537,-1.9567,-1.9555,-1.9545,-1.9559,-1.952,-1.9534,-1.9497,-1.9507,-1.9486,-1.9513,-1.9513,-1.9505,-1.9499,-1.9509,-1.951,-1.9512,-1.9507,-1.9483,-1.9483,-1.9482,-1.9482,0,-1.9641,-1.9614,-1.964,-1.9617,-1.9612,-1.9635,-1.9616,-1.9631,-1.9613,-1.9631,-1.9633,-1.9605,-1.9615,-1.9588,-1.9594,-1.9579,-1.9619,-1.9605,-1.9623,-1.9619,-1.9657,-1.9654,-1.9782,-1.9797,-1.9669,-1.967,-1.9671,0,-1.9699,-1.9719,-1.9699,-1.9705,-1.9699,-1.9709,-1.9712,-1.9678,-1.9683,-1.9674,-1.9691,-1.9697,-1.9701,-1.9719,-1.97,-1.9704,-1.969,-1.9735,-1.9691,-1.9701,-1.9693,-1.9693,-1.9695,-1.9744,-1.9746,-1.9747,-1.9748,0,-1.9805,-1.9791,-1.9797,-1.9798,-1.9803,-1.9802,-1.9799,-1.9806,-1.977,-1.9778,-1.9787,-1.979,-1.9796,-1.9804,-1.9804,-1.9796,-1.9767,-1.9762,-1.9771,-1.9782,-1.9792,-1.9789,-1.9649,-1.976,-1.9758,-1.9758,-1.9757,-1.9756,-1.9888,-1.9904,-1.9892,-1.99,-1.9894,-1.9892,-1.9905,-1.9888,-1.9896,-1.9898,-1.9877,-1.9892,-1.9882,-1.988,-1.9875,-1.9886,-1.9866,-1.9878,-1.9882,-1.9886,-1.9893,-1.9789,-1.9886,-1.9886,-1.9885,-1.9885,-1.9885,0,-1.9993,-1.9984,-1.9991,-1.9988,-1.9994,-1.9965,-1.996,-1.9968,-1.9981,-1.9974,-1.9978,-1.999,-1.9997,-1.9979,-1.9983,-1.9996,-1.9983,-1.9999,-1.9998,-1.9997,-1.991,-1.9903,-2.0009,-2.0009,-2.0009,-2.0009,-2.0009,-2.0009,-2.0049,-2.0076,-2.006,-2.0084,-2.0074,-2.0087,-2.0087,-2.0085,-2.008,-2.0095,-2.0101,-2.0088,-2.0077,-2.0081,-2.0086,-2.0081,-2.0085,-2.0106,-2.0096,-2.0015,-2.0003,-1.9991,-1.9984,-2.0107,-2.0107,-2.0182,-2.0183,-2.0183]},{"header":{"parameterUnit":"m.s-1","parameterCategory":1,"la1":30.2991,"la2":30.254,"lo1":-89.0895,"lo2":-89.0444,"dy":0.0017,"dx":0.0017,"nx":28,"ny":28,"refTime":"2025-08-16T21:00:00:Z","depth":0,"parameterNumber":3,"parameterNumberName":"V-component_of_WINDS"},"data":[0,0,0,0,0,0,0,0,0,0,0,0,0,0,0,0,0,0,0,0,0,0,0,0,0,0,0,0,0,0,0,0,0,0,0,0,0,0,0,0,0,0,0,0,0,0,0,0,0,0,0,0,0,0,0,0,0,0,-1.7831,-1.7831,0,-1.7817,-1.7816,-1.7816,-1.7786,-1.7785,-1.7784,-1.7784,-1.777,-1.777,-1.777,0,0,0,0,0,0,0,0,0,0,0,0,0,-1.7831,-1.7832,-1.7831,-1.783,-1.783,-1.7817,-1.7816,-1.7816,-1.7786,-1.7785,-1.7784,-1.7783,-1.777,-1.777,-1.7771,0,0,0,0,0,0,0,0,0,0,0,0,0,-1.7826,-1.7832,-1.7831,-1.7813,-1.7812,-1.7817,-1.7816,-1.7816,-1.7786,-1.7785,-1.7784,-1.7783,-1.777,-1.777,-1.7771,-1.7791,0,0,-1.7772,-1.7772,0,0,0,0,0,0,0,0,-1.7826,-1.7826,-1.7816,-1.7815,-1.7813,-1.7802,-1.7812,-1.7808,-1.7786,-1.7796,-1.7784,-1.7783,-1.7781,-1.7781,-1.778,-1.7791,-1.779,-1.7772,-1.7772,-1.7772,-1.7772,0,0,0,0,0,0,0,-1.7826,-1.7826,-1.7825,-1.7816,-1.7814,-1.7806,-1.7805,-1.7811,-1.7794,-1.7795,-1.7793,-1.7791,-1.778,-1.778,-1.778,-1.779,-1.7772,-1.7772,-1.7772,-1.7772,-1.7817,-1.7818,0,0,0,0,0,0,-1.7829,-1.7827,-1.7826,-1.7825,-1.7817,-1.7807,-1.7805,-1.7806,-1.7794,-1.7791,-1.7792,-1.779,-1.778,-1.7779,-1.7779,-1.7803,-1.7772,-1.7772,-1.7772,-1.7816,-1.7817,-1.7818,0,0,0,0,0,0,-1.7829,-1.783,-1.7826,-1.7825,-1.7824,-1.7808,-1.781,-1.7807,-1.7806,-1.7792,-1.7789,-1.7795,-1.7779,-1.7779,-1.7788,-1.7802,-1.7772,-1.7773,-1.7814,-1.7816,-1.7817,-1.785,0,0,0,0,0,0,-1.783,-1.783,-1.7837,-1.7825,-1.7824,-1.7836,-1.7811,-1.7807,-1.7807,-1.7804,-1.7794,-1.7791,-1.7778,-1.7788,-1.7789,-1.7802,-1.7773,-1.7813,-1.7815,-1.7817,-1.7848,-1.7852,-1.7856,0,0,0,0,0,-1.783,-1.7847,-1.7838,-1.7838,-1.7833,-1.7837,-1.7836,-1.7821,-1.7808,-1.7816,-1.7806,-1.7791,-1.78,-1.7789,-1.779,-1.7803,-1.7812,-1.7815,-1.7817,-1.7846,-1.7851,-1.7856,0,0,0,0,0,0,-1.7862,-1.7845,-1.7835,-1.7849,-1.7844,-1.7831,-1.7841,-1.7827,-1.7827,-1.7824,-1.7805,-1.7803,-1.7816,-1.781,-1.7799,-1.7822,-1.7804,-1.7806,-1.7826,-1.7831,-1.7835,-1.7837,-1.7773,0,0,0,0,0,-1.787,-1.7874,-1.786,-1.7874,-1.7872,-1.7857,-1.7857,-1.7846,-1.7841,-1.7839,-1.783,-1.7826,-1.7827,-1.7829,-1.7829,-1.7847,-1.7844,-1.7856,-1.786,-1.7864,-1.7866,-1.7875,-1.788,-1.7825,-1.7825,-1.7825,0,0,-1.7888,-1.788,-1.7883,-1.788,-1.7875,-1.7879,-1.7855,-1.7861,-1.7864,-1.784,-1.7848,-1.7842,-1.7835,-1.7849,-1.7855,-1.7845,-1.7881,-1.7867,-1.787,-1.787,-1.7878,-1.7883,-1.7888,-1.7827,-1.7826,-1.7826,0,0,-1.7923,-1.7917,-1.7928,-1.7924,-1.7916,-1.7906,-1.7909,-1.7898,-1.7892,-1.7901,-1.7882,-1.7886,-1.7889,-1.7885,-1.7884,-1.7917,-1.7903,-1.7918,-1.7941,-1.795,-1.7954,-1.7958,-1.797,-1.7974,-1.792,-1.792,-1.792,0,-1.7947,-1.7953,-1.7936,-1.7943,-1.7942,-1.7919,-1.793,-1.7927,-1.792,-1.792,-1.7909,-1.7912,-1.7907,-1.7919,-1.7927,-1.7926,-1.7929,-1.7919,-1.7955,-1.7958,-1.7962,-1.7973,-1.7977,-1.7922,-1.7922,-1.7922,-1.7922,0,-1.7982,-1.7986,-1.7996,-1.799,-1.799,-1.7999,-1.7983,-1.7985,-1.7974,-1.7965,-1.7974,-1.7966,-1.7964,-1.7966,-1.7956,-1.7977,-1.7972,-1.7958,-1.7939,-1.7969,-1.7979,-1.7983,-1.7925,-1.7924,-1.7924,-1.7923,0,0,-1.8037,-1.8021,-1.8025,-1.8022,-1.8012,-1.8015,-1.8023,-1.8022,-1.8024,-1.802,-1.8026,-1.8029,-1.8016,-1.8015,-1.8003,-1.8011,-1.8038,-1.7996,-1.7996,-1.8004,-1.8061,-1.8072,-1.8077,-1.8028,-1.8029,-1.803,-1.8062,0,-1.807,-1.8083,-1.8068,-1.8083,-1.8087,-1.8066,-1.8072,-1.8067,-1.8059,-1.8061,-1.8052,-1.8054,-1.8037,-1.8036,-1.8042,-1.8033,-1.8049,-1.803,-1.8034,-1.8034,-1.8037,-1.8082,-1.8094,-1.8125,-1.8066,-1.8066,-1.8067,0,-1.8111,-1.8109,-1.8125,-1.8114,-1.8115,-1.8121,-1.8118,-1.812,-1.8114,-1.8107,-1.8105,-1.8091,-1.8098,-1.8079,-1.8089,-1.8076,-1.8077,-1.8072,-1.8073,-1.8073,-1.8053,-1.8084,-1.8134,-1.8139,-1.8073,-1.8073,-1.8072,0,-1.815,-1.8151,-1.8161,-1.8159,-1.8146,-1.8151,-1.8146,-1.8138,-1.8138,-1.8136,-1.8136,-1.8134,-1.8134,-1.8133,-1.8119,-1.8106,-1.813,-1.811,-1.8125,-1.8125,-1.8131,-1.8131,-1.8182,-1.8131,-1.8131,-1.8131,-1.8131,0,-1.8189,-1.82,-1.8178,-1.8184,-1.8196,-1.8178,-1.819,-1.8182,-1.8176,-1.818,-1.8161,-1.8166,-1.8147,-1.8149,-1.8138,-1.8148,-1.8147,-1.8142,-1.8139,-1.8144,-1.8145,-1.8145,-1.8142,-1.8132,-1.8132,-1.8131,-1.8131,0,-1.8235,-1.8221,-1.823,-1.8217,-1.8214,-1.8223,-1.8212,-1.8217,-1.8207,-1.8213,-1.8213,-1.8198,-1.8199,-1.8185,-1.8184,-1.8177,-1.8192,-1.8185,-1.8194,-1.8192,-1.8208,-1.8207,-1.8261,-1.8267,-1.8212,-1.8212,-1.8213,0,-1.8261,-1.8269,-1.8256,-1.8258,-1.8253,-1.8256,-1.8256,-1.8238,-1.8239,-1.8232,-1.8238,-1.8238,-1.8237,-1.8241,-1.823,-1.8229,-1.8223,-1.8242,-1.8222,-1.8227,-1.8223,-1.8223,-1.8224,-1.8246,-1.8247,-1.8247,-1.8248,0,-1.8308,-1.8301,-1.8301,-1.8299,-1.8299,-1.8297,-1.8293,-1.8295,-1.8277,-1.8278,-1.828,-1.8279,-1.8278,-1.8279,-1.8276,-1.827,-1.8256,-1.8254,-1.8257,-1.8262,-1.8267,-1.8265,-1.8205,-1.8253,-1.8252,-1.8252,-1.8251,-1.8251,-1.8345,-1.8351,-1.8343,-1.8344,-1.8339,-1.8336,-1.834,-1.8331,-1.8332,-1.833,-1.8319,-1.8323,-1.8315,-1.831,-1.8306,-1.8308,-1.8299,-1.8304,-1.8306,-1.8307,-1.831,-1.8267,-1.8308,-1.8308,-1.8307,-1.8307,-1.8307,0,-1.8392,-1.8386,-1.8387,-1.8382,-1.8383,-1.8369,-1.8364,-1.8365,-1.8369,-1.8363,-1.8363,-1.8364,-1.8365,-1.8353,-1.8352,-1.8356,-1.835,-1.8357,-1.8356,-1.8355,-1.8318,-1.8315,-1.8362,-1.8362,-1.8362,-1.8362,-1.8362,-1.8362,-1.8417,-1.8426,-1.8418,-1.8424,-1.8418,-1.8421,-1.8419,-1.8416,-1.8411,-1.8414,-1.8414,-1.8407,-1.8399,-1.8397,-1.8396,-1.8393,-1.8394,-1.8403,-1.8398,-1.8363,-1.8358,-1.8353,-1.835,-1.8403,-1.8403,-1.8434,-1.8435,-1.8435]}]]